Regional Weather Roundup
Issued by NWS

Home | Current Version | Previous Version | Text Only | Print | Product List | Glossary Off
Versions: 1 2 3 4 5 6 7 8 9 10 11 12 13 14 15 16 17 18 19 20 21 22 23 24 25 26 27 28 29 30 31 32 33 34 35 36 37 38 39 40 41 42 43 44 45 46 47 48 49 50

000
ASUS43 KDTX 231501
RWRMI
MICHIGAN HOURLY REGIONAL WEATHER ROUNDUP
NATIONAL WEATHER SERVICE DETROIT/PONTIAC MI
1000 AM EST THU FEB 23 2017

NOTE: "FAIR" INDICATES FEW OR NO CLOUDS BELOW 12,000 FEET WITH NO
SIGNIFICANT WEATHER AND/OR OBSTRUCTION TO VISIBILITY.

MIZ047>049-052>055-059>063-066>070-074>076-081>083-231600-
SOUTHEAST LOWER MICHIGAN

CITY           SKY/WX    TMP DP  RH WIND       PRES   REMARKS
ADRIAN         MOSUNNY   57  51  80 W10       29.73S
ALMA           CLOUDY    49  42  78 NW13      29.72R
ANN ARBOR      SUNNY     58  50  75 SW16      29.71R
BAD AXE        CLOUDY    53  46  79 W15G25    29.66R
CARO           SUNNY     55  46  73 W14G23    29.68R
DETROIT CITY   MOSUNNY   60  51  72 W10       29.69R
DETROIT        MOSUNNY   60  51  72 SW16      29.71S HAZE
FLINT          SUNNY     54  45  71 W16       29.70R
GROSSE ILE     SUNNY     60  51  72 W9        29.70S
HILLSDALE      MOSUNNY   54  46  76 W9        29.73R
HOWELL         SUNNY     56  44  65 W13       29.71R

CITY           SKY/WX    TMP DP  RH WIND       PRES   REMARKS
JACKSON        SUNNY     57  46  66 W9        29.72R
LAMBERTVILLE   MOSUNNY   60  52  73 W9        29.73R
LANSING        SUNNY     53  42  66 W12       29.73R
LAPEER         FAIR      56  45  64 W12G25    29.68R
MASON          SUNNY     54  45  71 W12       29.73R
MONROE         SUNNY     60  54  78 W13       29.71S
MT. CLEMENS    MOSUNNY   61  50  68 W14G22    29.66S
PONTIAC        MOSUNNY   57  47  69 W16       29.68R
PORT HOPE        N/A     51  43  74 W10G25    29.63R
PORT HURON     MOSUNNY   59  48  67 W12G20    29.67R
TRI CITIES     PTSUNNY   51  44  77 W15       29.71R
MIDLAND        PTSUNNY   51  39  65 NW10      29.71R
TROY           SUNNY     60  48  64 W10G20    29.70R
SAGINAW HB     SUNNY     54  43  66 W17       29.70R
$$
MIZ043>046-050>051-056>058-064>065-071>073-077>080-231600-
SOUTHWEST LOWER MICHIGAN

CITY           SKY/WX    TMP DP  RH WIND       PRES   REMARKS
BATTLE CREEK   MOSUNNY   53  45  74 NW8       29.75R
BENTON HARBOR  CLOUDY    45  39  79 VRB5      29.78R
BIG RAPIDS     CLOUDY    41  37  87 NW9G18    29.74R
COLDWATER      SUNNY     55  47  74 W10       29.74S
FREMONT        CLOUDY    40  39  97 N10       29.76R WCI  34
HOLLAND        CLOUDY    44  40  85 N8        29.77R
GRAND RAPIDS   CLOUDY    44  40  85 NW10      29.75R FOG
IONIA          PTSUNNY   48  42  79 W8        29.72R
KALAMAZOO      SUNNY     52  43  71 NW9       29.75R
LUDINGTON      CLOUDY    38  35  89 N13G25    29.79R WCI  30
MARSHALL       SUNNY     55  46  72 W8        29.73R
MOUNT PLEASANT PTSUNNY   46  39  78 W8        29.72R
MUSKEGON       CLOUDY    43  40  89 N9        29.78R
SOUTH HAVEN    CLOUDY    42  40  91 N7        29.78R FOG
$$
MIZ016>042-231600-
NORTHERN LOWER MICHIGAN

CITY           SKY/WX    TMP DP  RH WIND       PRES   REMARKS
ALPENA         CLOUDY    41  39  93 NW14G22   29.67R
BEAVER ISLAND  CLOUDY    35  34  94 NW7       29.75S WCI  29
BELLAIRE       CLOUDY    36  34  94 NW12      29.78R WCI  27
CADILLAC       CLOUDY    39  36  87 NW9G17    29.73R WCI  33
CHARLEVOIX     CLOUDY    35  35 100 NW9       29.81R WCI  28
FRANKFORT      CLOUDY    37  34  88 N13G22    29.79R WCI  29
GAYLORD        CLOUDY    36  33  89 W15G21    29.72R WCI  27
GRAYLING       CLOUDY    39  36  90 NW15G21   29.72R WCI  30
HARBOR SPRINGS CLOUDY    35  34  94 W6        29.74R WCI  30
HOUGHTON LAKE  CLOUDY    38  36  92 NW12      29.72R WCI  30
MANISTEE       CLOUDY    37  34  89 NW15G22   29.79R WCI  28
OSCODA         CLOUDY    47  40  77 W16G29    29.66R
PELLSTON       CLOUDY    35  33  92 NW14      29.73R WCI  26
ROGERS CITY    CLOUDY    39  37  94 NW13G20   29.68R WCI  31
TRAVERSE CITY  CLOUDY    38  33  82 N14       29.76R WCI  30
$$
MIZ007>008-015-231600-
EASTERN UPPER MICHIGAN

CITY           SKY/WX    TMP DP  RH WIND       PRES   REMARKS
KINROSS        CLOUDY    34  33  96 NW15      29.69R WCI  24
MACKINAC ISLAN CLOUDY    34  34 100 NW10G16   29.71R WCI  26
NEWBERRY       CLOUDY    32  32 100 N10G16    29.74R WCI  24
S. S. MARIE    CLOUDY    37  33  85 NW9       29.69R WCI  30
MUNISING         N/A     34  29  82 N18       29.80R WCI  23
$$
MIZ004>006-011>014-085-231600-
CENTRAL UPPER MICHIGAN

CITY           SKY/WX    TMP DP  RH WIND       PRES   REMARKS
MANISTIQUE     CLOUDY    35  34  98 N15G25    29.75R WCI  25
ESCANABA       CLOUDY    35  28  75 NW10G22   29.84R WCI  27
MENOMINEE      CLOUDY    36  29  75 N12       29.85S WCI  28
SAWYER-GWINN   PTSUNNY   30  27  86 N14       29.79F WCI  20
$$
MIZ001>003-009>011-084-231600-
WESTERN UPPER MICHIGAN

CITY           SKY/WX    TMP DP  RH WIND       PRES   REMARKS
IRON MOUNTAIN  PTSUNNY   32  24  72 NW9G20    29.84R WCI  24
HOUGHTON       CLOUDY    32  21  64 NW12      29.85S WCI  23
COPPER HARBOR    N/A     34  23  64 N12       29.86R WCI  25
IRONWOOD       CLOUDY    31  28  89 NW6       29.89R WCI  25
$$

ABBREVIATIONS USED IN REMARKS
   TC - TEMPERATURE IN CELSIUS
  WCI - WIND CHILL INDEX
   HX - HEAT INDEX
  VSB - VISIBILITY





USA.gov is the U.S. government's official web portal to all federal, state and local government web resources and services.